Temperature
25 25 25 25 28 29 30 33 33 32 32 31 31 32 30 29 27 24 24 24 23 22 22 21 20 20 20 20 19 19 19 18 18 18 18 18 18 18 18 18 18 18 18 18 18 18 18 18 19
25 24 25 27 28 29 31 32 32 31 30 31 31 31 30 28 26 25 24 23 22 22 22 21 20 20 20 19 19 19 19 18 18 18 18 18 18 18 18 18 18 18 18 18 18 18 18 18 19
25 25 26 29 29 29 30 31 32 32 32 32 31 31 29 28 26 24 23 22 21 21 21 21 20 20 19 19 19 19 19 18 18 18 18 18 18 18 18 18 18 18 18 18 18 18 18 18 19
24 26 27 29 29 31 31 31 33 33 32 32 31 30 28 27 26 24 23 22 21 20 21 21 20 20 19 19 19 18 18 18 18 18 18 18 18 17 17 17 17 17 17 17 18 18 18 18 18
24 27 28 28 30 32 33 32 33 32 31 31 31 30 27 26 25 23 23 22 21 20 20 21 20 20 19 19 18 18 18 18 18 18 18 17 17 17 17 17 17 17 17 17 17 18 18 18 18
26 28 28 29 31 33 34 33 32 31 29 30 30 29 27 26 24 23 23 23 22 21 20 21 20 20 19 19 18 18 18 18 18 18 17 17 17 17 17 17 17 17 17 17 17 18 18 18 18
27 28 29 30 32 33 34 33 32 30 29 29 30 29 27 26 24 24 24 23 23 21 21 21 21 20 19 19 18 18 18 18 18 17 17 17 17 17 17 17 17 17 17 17 17 18 18 18 18
27 29 29 30 32 33 34 33 32 30 29 30 30 30 28 26 25 25 24 24 23 22 21 21 20 20 20 19 19 18 18 18 18 17 17 17 17 17 17 17 17 17 17 17 17 17 18 18 18
27 28 28 30 32 33 34 34 32 30 30 29 30 30 28 26 25 25 25 24 23 22 21 20 19 19 19 19 19 18 18 18 18 17 17 17 17 17 17 17 17 17 17 17 17 18 18 18 18
28 28 29 32 34 34 34 34 32 31 30 30 30 29 27 26 26 26 25 25 24 23 22 21 20 19 18 18 19 18 18 18 17 17 17 17 17 16 16 17 17 17 17 17 17 17 17 17 17
29 29 31 32 33 33 34 34 33 32 31 30 29 27 26 26 26 26 26 25 24 23 23 22 20 20 19 19 19 18 18 18 17 17 17 17 17 17 17 17 17 17 17 17 17 17 17 17 17
30 30 31 32 32 32 32 33 33 33 32 30 29 27 26 26 27 27 26 25 24 23 23 22 21 20 20 19 19 19 18 18 18 17 17 17 17 17 17 17 17 17 17 17 17 17 17 17 17
30 30 31 31 32 32 32 33 33 33 32 30 29 27 26 27 27 27 26 25 24 24 23 22 21 21 20 20 19 19 19 18 18 18 18 17 17 17 17 17 17 17 17 17 17 17 17 17 17
31 31 31 31 31 32 32 32 33 33 32 30 29 28 27 28 28 28 27 25 24 23 23 22 21 20 20 20 20 19 19 19 18 18 17 17 17 17 17 17 17 17 17 17 17 16 16 16 16
30 31 31 31 31 32 32 31 33 33 32 31 29 28 28 29 29 28 27 25 24 23 22 22 21 20 20 19 19 19 19 18 18 18 17 17 17 17 17 16 16 16 16 16 16 16 16 16 15
30 29 29 30 31 31 31 30 33 33 32 31 31 30 30 30 29 28 27 25 24 23 22 21 20 19 19 19 19 19 19 18 18 17 17 17 17 17 16 16 16 16 16 15 15 15 15 15 15
28 28 28 30 31 32 31 31 32 33 32 31 31 31 31 30 29 28 27 25 24 22 21 21 20 19 19 19 18 18 18 18 17 17 17 17 16 16 16 16 16 15 15 15 15 14 14 14 14
27 28 29 29 31 32 31 31 32 32 32 31 31 31 31 30 29 28 27 24 23 22 21 20 20 19 18 18 18 18 17 17 17 17 16 16 16 16 15 15 15 15 14 14 14 14 14 13 13
29 29 30 31 32 32 31 31 32 32 32 32 31 31 31 30 29 27 26 23 21 20 20 19 19 18 18 17 17 17 17 16 16 16 16 16 16 15 15 14 14 14 14 13 13 13 13 12 11
28 28 29 30 32 32 31 31 31 32 32 31 31 31 31 30 28 26 24 22 20 20 19 18 18 17 17 17 17 17 16 16 16 15 15 15 15 15 14 14 13 13 13 12 12 11 11 11 10
28 28 29 29 30 31 30 30 30 31 31 31 31 31 31 30 27 24 22 21 19 18 18 17 17 17 16 16 16 16 16 15 15 15 14 14 14 14 13 13 13 12 11 11 10 10 9 9 9
28 29 29 29 28 28 29 28 29 30 31 31 31 31 31 30 27 24 21 19 18 18 17 17 17 16 16 15 15 16 15 15 14 14 14 14 13 12 12 12 11 11 10 9 9 9 9 8 8
28 29 29 29 28 27 28 27 29 30 30 31 32 31 31 30 27 23 20 19 17 17 17 16 16 16 15 15 15 14 14 14 13 13 13 12 12 11 11 10 10 9 9 8 8 8 7 7 7
29 28 28 28 27 26 27 27 27 30 31 31 32 31 30 29 26 23 20 18 17 16 16 16 15 15 14 14 14 13 13 13 12 12 12 11 11 10 9 8 8 8 7 7 6 6 6 6 6
28 26 25 25 25 25 28 27 28 30 31 32 31 30 29 27 24 21 18 17 16 15 15 15 14 14 14 13 13 13 12 12 12 11 11 11 10 9 9 8 7 7 6 6 6 5 5 5 5
27 27 25 24 25 27 28 28 29 31 31 31 30 29 28 26 23 20 17 16 15 15 14 14 14 13 13 12 12 12 12 11 11 10 10 10 9 9 8 7 7 6 6 5 5 5 5 5 5
27 27 28 26 26 25 26 28 30 30 30 30 30 29 28 25 21 19 16 15 14 14 13 13 13 12 12 12 11 11 10 10 10 10 9 9 8 8 7 6 6 5 5 5 5 5 5 5 5
28 28 27 26 24 24 25 27 28 28 29 29 29 28 26 23 20 17 15 14 14 13 12 12 12 11 11 11 10 10 9 9 9 8 8 8 7 7 6 6 5 5 5 5 5 5 5 5 5
27 27 26 26 26 25 24 26 28 28 28 28 28 27 25 21 18 16 14 13 13 12 11 11 10 10 10 9 9 9 8 8 7 7 7 7 6 6 6 5 5 5 5 5 5 5 5 5 4
28 27 27 25 24 25 25 26 28 28 27 26 26 24 22 20 17 15 14 12 12 11 10 10 9 9 9 8 8 7 7 7 7 6 6 6 6 5 5 5 5 5 5 5 5 5 4 4 4
Wind_Speed
9 13 11 9 8 10 16 11 3 8 9 10 11 10 16 16 11 10 10 17 23 20 19 19 17 16 16 15 15 16 16 16 16 15 15 14 13 13 12 12 12 12 12 12 12 11 10 9 7
10 12 10 7 10 14 12 4 6 13 8 5 8 10 16 15 14 14 13 18 22 19 18 18 18 16 16 15 15 15 16 15 15 15 14 13 12 12 11 11 11 11 11 11 10 9 8 7 5
11 14 8 9 15 17 10 4 4 13 9 7 9 11 13 11 13 11 15 18 19 17 18 20 18 16 15 15 14 15 15 15 14 14 13 12 11 10 10 10 10 9 9 9 8 8 6 5 4
7 8 7 11 19 17 7 4 6 10 8 8 10 12 12 9 11 16 17 18 19 18 19 19 18 16 15 14 13 13 13 13 13 12 12 11 10 9 9 8 8 8 8 8 7 6 5 4 3
10 8 12 16 20 15 9 7 5 8 6 6 11 16 13 13 18 19 17 17 17 18 19 19 18 17 15 14 13 12 12 12 11 11 10 10 9 8 8 8 7 7 7 6 6 6 5 4 2
9 9 14 17 19 15 8 7 7 7 5 2 10 17 13 17 17 17 17 16 17 19 19 19 18 17 15 14 12 12 11 10 10 10 9 9 8 8 7 7 7 7 7 6 6 6 5 3 2
13 13 16 20 17 12 7 8 10 9 7 5 8 14 13 16 17 17 16 15 17 19 18 17 17 16 15 14 13 12 11 10 10 9 9 9 8 8 8 8 8 7 7 6 6 5 4 3 2
14 13 19 20 17 11 9 9 9 12 7 4 6 9 15 18 17 17 16 15 17 17 18 17 17 17 15 14 14 13 12 11 10 10 9 9 9 9 9 10 9 8 7 7 6 5 5 5 5
17 15 17 20 16 8 8 10 9 11 8 8 6 11 21 22 19 17 16 15 15 15 16 17 17 16 17 16 15 14 13 12 12 10 11 10 10 11 10 9 11 9 8 8 7 7 8 8 8
15 16 21 19 12 4 7 10 10 11 13 11 7 17 22 20 19 18 17 16 16 15 15 15 17 15 16 15 15 14 13 13 13 12 12 11 9 9 10 12 11 10 10 9 10 10 10 10 10
19 21 21 17 10 6 6 7 10 12 12 9 7 11 16 19 18 17 17 15 15 14 13 16 15 11 12 11 12 11 11 12 13 13 13 10 9 11 12 10 10 10 11 10 11 11 11 9 2
20 21 21 17 9 7 10 12 10 12 10 11 10 4 10 17 19 17 18 17 16 15 14 15 15 11 9 10 8 8 8 8 7 11 9 8 4 3 5 6 10 10 10 9 7 7 5 0 3
20 21 19 15 11 10 13 16 13 12 8 15 18 19 20 19 19 16 15 16 17 15 12 13 14 10 6 6 5 6 5 6 8 10 6 6 3 2 2 2 2 2 2 3 1 2 3 2 4
18 19 20 18 15 15 15 16 18 15 10 13 15 18 23 20 18 16 16 16 15 15 13 12 14 11 8 5 2 4 6 6 8 7 7 4 3 3 2 2 1 3 5 6 4 4 3 2 3
20 19 18 18 18 17 16 18 20 16 12 11 13 15 19 18 18 17 16 15 16 14 12 12 13 12 10 9 6 5 6 7 6 7 7 4 4 4 2 1 1 3 4 3 3 4 3 3 3
18 19 20 18 19 20 20 20 19 17 15 12 11 13 14 13 16 18 18 15 15 15 13 12 14 15 11 8 6 4 5 7 6 8 8 6 5 4 1 2 4 4 3 3 2 2 4 5 5
19 19 20 21 23 23 22 20 19 15 13 11 11 12 13 13 14 14 19 19 16 15 14 12 11 15 12 9 6 5 5 5 6 8 7 6 5 5 4 4 4 4 3 4 5 6 5 5 5
18 19 21 23 23 25 24 20 17 13 10 12 13 14 13 13 11 12 14 17 15 14 13 11 10 12 11 9 6 6 7 6 6 7 7 7 7 8 5 5 6 5 4 5 5 4 4 3 4
22 22 21 19 22 22 22 20 18 15 14 15 15 15 14 11 9 9 15 17 14 13 12 10 10 10 9 8 8 7 7 7 7 6 9 9 9 9 6 5 4 4 5 5 5 4 5 4 3
23 23 23 18 16 15 15 17 15 17 17 15 16 15 12 10 7 12 16 17 15 13 12 11 10 10 8 7 6 6 7 7 7 6 7 9 9 6 7 5 3 4 2 2 2 1 3 4 4
21 20 19 18 18 18 16 18 17 19 23 21 19 18 16 12 10 14 15 15 14 13 12 10 10 9 7 8 7 8 7 7 6 7 5 6 8 8 7 5 4 3 2 3 2 2 3 3 5
16 15 16 18 18 17 19 19 19 20 23 25 23 20 18 14 11 15 16 15 13 11 9 9 9 8 7 8 8 10 8 8 7 6 6 6 6 6 6 6 5 3 3 3 3 6 4 4 4
15 15 16 17 17 18 20 19 19 18 20 19 20 20 18 14 11 16 17 15 13 12 10 9 10 8 8 6 7 7 6 6 6 7 7 6 5 5 5 5 4 1 2 4 3 3 3 4 4
13 14 14 14 14 19 20 21 22 19 20 18 15 13 11 11 11 17 17 16 13 12 11 10 10 8 7 6 5 5 8 8 8 7 6 5 6 4 4 6 3 1 2 3 2 2 3 2 3
15 12 10 13 15 19 21 20 19 18 17 12 6 5 4 7 13 18 18 16 14 13 12 10 11 9 7 6 6 7 8 8 7 6 4 3 4 6 4 5 2 2 2 1 0 2 3 3 3
16 17 14 13 14 14 12 11 10 8 5 2 1 2 4 9 13 17 17 15 13 13 12 11 10 9 8 7 8 7 7 5 4 3 3 2 4 7 6 4 2 0 1 3 2 3 4 3 3
17 17 18 17 19 18 16 17 14 7 7 7 7 7 6 10 14 17 16 14 13 13 12 11 11 9 8 8 7 6 4 5 6 4 2 4 4 4 4 2 1 1 1 2 3 4 5 5 5
20 17 11 14 15 17 17 17 11 9 4 3 3 2 2 11 16 18 15 14 12 12 11 11 9 9 8 7 6 6 6 6 5 4 6 6 5 5 1 1 1 2 3 4 4 5 5 6 6
17 18 16 14 14 15 15 9 3 7 6 4 3 1 7 14 17 17 16 15 14 14 12 11 10 9 7 6 5 6 5 4 3 4 5 4 3 1 2 2 3 4 5 5 5 6 7 7 7
16 17 16 13 15 15 15 13 6 7 9 10 10 7 8 15 18 18 18 17 16 14 12 10 8 7 6 7 7 6 5 4 3 4 4 2 1 2 3 4 4 5 6 5 6 7 7 7 7
Wind_Direction
247 261 263 280 267 253 263 274 80 72 59 59 48 52 65 56 70 110 140 108 107 115 122 121 119 117 112 111 112 117 119 121 121 120 117 114 111 107 103 100 100 102 104 105 105 105 103 100 96
260 263 271 264 264 265 273 310 83 93 97 97 79 71 77 72 86 114 121 111 113 121 132 128 126 122 118 115 115 116 118 119 119 117 116 114 112 109 107 106 105 106 107 108 109 108 107 105 101
261 266 271 262 253 261 285 343 121 119 135 116 90 72 67 88 102 117 121 122 120 125 126 129 132 127 123 119 118 119 119 119 118 117 116 114 112 110 110 110 110 109 110 110 110 109 108 105 100
242 237 242 254 259 259 245 226 165 125 125 111 104 89 83 84 110 125 133 130 127 129 128 136 135 132 129 126 123 122 122 121 120 119 118 116 114 113 113 112 112 112 113 111 110 110 110 109 105
236 247 238 253 259 256 220 189 136 114 114 115 106 102 96 97 112 127 139 136 136 131 130 140 140 138 135 133 131 129 127 125 123 122 121 119 117 114 113 113 113 114 114 111 112 115 117 118 118
221 230 240 247 252 244 214 157 133 109 102 123 115 114 113 117 125 141 144 145 139 131 131 140 143 143 142 141 140 137 133 130 128 126 125 124 123 121 120 118 117 115 114 114 118 123 127 133 150
238 241 246 250 253 235 202 162 152 138 164 195 139 122 127 136 141 149 147 150 140 133 134 145 149 149 149 149 147 143 139 136 134 134 136 138 138 137 134 129 126 125 125 127 130 136 145 158 193
240 257 265 266 262 241 186 175 169 150 169 185 173 138 141 141 149 149 150 150 144 143 144 150 152 154 156 157 154 150 148 147 148 151 156 159 160 158 152 147 139 140 142 144 151 161 174 190 213
235 250 262 263 259 234 184 181 173 154 159 202 193 128 141 144 151 151 153 154 150 147 146 151 151 157 161 158 155 155 157 160 161 170 177 179 186 173 167 153 150 157 161 165 174 187 199 208 222
226 239 247 261 277 238 208 194 179 173 174 207 162 121 134 148 155 159 159 161 154 151 151 148 149 159 162 154 153 165 170 171 184 180 183 196 194 175 156 157 166 173 178 182 198 207 216 220 221
228 241 259 283 300 318 289 236 207 198 187 188 142 123 143 157 163 168 164 164 155 155 155 149 152 161 156 144 164 170 172 170 193 182 183 186 175 163 158 163 173 187 190 199 203 214 225 225 210
235 245 258 279 296 295 284 276 247 232 201 148 114 137 188 177 174 176 167 162 157 161 161 153 149 157 153 150 163 159 157 173 175 159 178 166 184 177 160 173 180 189 194 196 197 218 204 32 323
236 249 261 270 279 275 269 271 266 244 199 150 152 182 202 194 179 178 164 161 161 161 162 152 146 138 121 117 154 160 146 159 144 148 172 159 167 170 122 110 81 298 154 154 271 327 48 15 310
243 242 252 261 261 261 260 264 261 250 209 171 168 190 198 193 182 175 166 161 163 159 158 143 140 131 125 129 167 127 130 121 130 138 146 142 111 93 79 82 73 350 30 37 1 0 10 335 342
256 256 252 250 253 255 256 254 252 244 222 190 186 203 204 191 183 177 170 163 159 153 148 140 143 141 149 161 182 154 145 141 128 120 122 120 99 98 78 98 113 36 38 43 1 354 331 301 304
249 246 251 250 247 248 247 250 251 236 222 210 210 214 211 194 193 182 169 158 151 153 149 153 161 153 161 166 184 157 147 134 125 126 124 120 104 100 77 63 73 28 12 37 25 12 355 1 353
245 238 242 246 238 236 236 244 258 251 218 214 226 232 218 202 206 189 168 158 151 149 151 162 160 155 163 160 160 121 105 109 115 111 109 106 96 87 72 76 60 11 33 43 21 42 16 356 347
234 235 236 242 242 231 230 233 244 251 224 223 228 236 230 215 202 183 159 146 141 143 150 159 152 151 155 152 148 130 120 111 102 97 96 98 93 74 59 90 63 30 50 53 42 18 359 327 305
250 256 255 247 240 238 229 233 241 246 224 233 238 237 236 223 194 154 139 137 142 146 152 152 155 150 153 153 157 147 139 127 111 106 100 90 84 78 62 77 80 58 63 56 34 19 340 317 326
242 256 265 272 271 259 242 236 244 261 257 237 240 250 246 234 166 135 134 143 150 153 154 154 154 155 161 152 146 140 133 122 108 99 97 94 88 78 88 69 66 70 62 91 59 20 328 322 339
239 247 259 268 276 276 267 252 247 256 265 260 242 237 246 235 177 149 145 148 152 155 159 160 154 156 158 138 125 117 106 112 117 126 113 100 101 89 76 74 58 38 5 76 20 7 355 337 326
243 248 258 265 267 266 265 264 250 244 246 247 244 234 236 239 197 161 155 151 150 149 144 139 137 138 132 129 138 144 153 153 146 138 123 110 102 102 96 84 72 37 12 52 10 55 357 338 315
246 251 251 252 256 263 265 268 267 262 254 249 240 228 228 230 199 158 151 147 141 135 131 126 124 125 129 136 148 156 145 128 125 122 129 131 120 115 116 109 89 55 42 70 41 31 356 333 346
243 249 257 261 261 258 255 258 263 259 259 258 244 215 212 222 161 143 139 135 131 128 126 126 122 118 122 126 130 132 126 127 130 130 142 156 151 146 135 124 98 56 56 64 37 17 305 336 353
222 234 240 239 239 248 248 247 255 257 260 264 238 186 168 143 136 134 134 135 136 135 132 131 126 120 116 112 108 108 112 116 126 136 158 187 155 134 109 98 92 58 62 291 289 289 293 287 277
218 224 237 253 260 268 274 260 263 288 287 289 84 133 137 140 136 133 133 135 138 138 136 133 127 121 115 109 105 106 118 133 130 109 137 114 76 102 119 110 117 109 305 317 2 311 285 268 261
236 229 236 251 268 277 280 289 292 261 229 221 224 228 209 151 133 130 130 134 139 138 134 132 127 122 117 113 111 111 103 94 99 91 59 85 76 113 99 103 136 279 288 289 289 276 285 278 264
227 243 248 250 262 271 279 281 295 326 329 285 245 249 124 127 126 126 127 132 132 127 121 118 118 119 116 116 124 117 99 98 110 107 79 72 68 64 68 271 272 274 271 263 263 275 271 272 269
215 228 242 259 263 266 271 274 18 22 11 357 334 350 114 126 127 128 130 127 122 120 121 118 116 114 115 113 99 98 100 103 112 97 98 92 78 75 273 286 284 282 279 273 268 271 278 281 284
237 237 234 239 251 261 271 279 338 25 21 20 8 28 96 123 128 129 127 126 125 125 123 120 117 115 111 102 91 85 78 71 69 78 73 71 59 322 313 310 303 296 297 298 295 300 308 310 310
Height
1516 1515 1513 1513 1507 1500 1489 1470 1462 1466 1472 1475 1477 1477 1482 1489 1498 1513 1514 1514 1513 1515 1518 1521 1523 1526 1528 1530 1533 1535 1537 1539 1541 1543 1544 1546 1547 1548 1549 1551 1552 1553 1554 1556 1557 1558 1559 1560 1561
1516 1516 1516 1512 1506 1502 1485 1469 1468 1471 1477 1479 1479 1481 1485 1494 1501 1508 1512 1514 1514 1516 1519 1521 1524 1527 1529 1531 1533 1536 1538 1540 1542 1543 1545 1546 1548 1549 1550 1551 1553 1554 1555 1556 1557 1558 1559 1559 1560
1514 1516 1516 1506 1501 1497 1486 1474 1470 1471 1475 1478 1480 1484 1490 1498 1504 1508 1512 1515 1515 1517 1520 1522 1525 1527 1530 1532 1534 1536 1538 1540 1542 1544 1545 1547 1548 1549 1551 1552 1553 1554 1555 1556 1557 1557 1558 1559 1560
1514 1516 1513 1504 1496 1479 1474 1474 1469 1471 1475 1478 1482 1487 1496 1501 1504 1508 1512 1515 1517 1518 1520 1523 1525 1528 1530 1533 1535 1537 1539 1541 1543 1544 1546 1547 1549 1550 1551 1552 1553 1554 1555 1556 1556 1557 1558 1559 1559
1514 1512 1507 1501 1487 1472 1467 1469 1469 1473 1477 1481 1484 1490 1498 1502 1505 1508 1512 1516 1518 1520 1521 1524 1526 1528 1531 1533 1535 1538 1540 1542 1543 1545 1546 1548 1549 1550 1551 1552 1553 1554 1555 1555 1556 1557 1558 1558 1559
1512 1506 1506 1499 1482 1468 1463 1466 1471 1476 1482 1483 1485 1490 1499 1503 1506 1509 1513 1516 1519 1521 1522 1524 1526 1528 1531 1533 1535 1538 1540 1542 1543 1545 1547 1548 1549 1550 1551 1552 1553 1554 1555 1556 1556 1557 1558 1558 1559
1508 1501 1497 1487 1476 1466 1462 1465 1472 1478 1484 1484 1485 1490 1498 1502 1506 1509 1513 1517 1519 1521 1522 1524 1526 1529 1531 1533 1536 1538 1540 1542 1544 1545 1547 1548 1550 1551 1552 1553 1553 1554 1555 1555 1556 1557 1557 1558 1558
1504 1499 1493 1482 1474 1465 1460 1465 1471 1477 1483 1483 1484 1487 1495 1501 1505 1509 1513 1516 1519 1521 1522 1524 1527 1529 1531 1534 1536 1538 1540 1542 1544 1545 1547 1548 1550 1551 1552 1553 1553 1554 1554 1555 1556 1556 1557 1557 1558
1502 1501 1495 1479 1469 1461 1459 1464 1470 1476 1480 1483 1482 1485 1492 1498 1503 1508 1512 1515 1519 1521 1523 1525 1527 1529 1532 1534 1536 1538 1540 1542 1544 1546 1547 1549 1550 1550 1551 1553 1553 1554 1554 1555 1555 1556 1556 1557 1557
1497 1496 1485 1470 1460 1459 1460 1462 1468 1473 1479 1480 1482 1487 1492 1497 1502 1506 1509 1513 1517 1520 1523 1526 1527 1530 1533 1535 1536 1538 1540 1542 1544 1546 1547 1549 1550 1551 1552 1553 1553 1553 1554 1554 1555 1555 1556 1556 1557
1490 1487 1476 1469 1463 1462 1462 1463 1465 1468 1474 1478 1482 1488 1493 1496 1500 1503 1507 1511 1515 1519 1522 1525 1527 1530 1533 1534 1536 1538 1541 1542 1544 1546 1548 1549 1551 1552 1552 1553 1553 1553 1554 1554 1555 1555 1556 1557 1558
1485 1480 1476 1471 1467 1467 1468 1465 1464 1466 1469 1474 1480 1489 1495 1494 1496 1500 1503 1508 1512 1516 1520 1523 1525 1529 1532 1534 1536 1538 1541 1542 1545 1546 1548 1550 1551 1552 1553 1553 1553 1553 1554 1554 1555 1556 1556 1557 1557
1480 1477 1474 1472 1471 1471 1470 1467 1465 1465 1468 1472 1477 1486 1490 1492 1493 1497 1500 1504 1509 1513 1518 1521 1523 1526 1530 1532 1535 1538 1540 1542 1544 1545 1547 1549 1550 1551 1552 1553 1553 1554 1555 1554 1555 1556 1556 1555 1556
1475 1474 1473 1472 1471 1470 1469 1468 1466 1463 1466 1470 1475 1480 1483 1485 1488 1492 1496 1501 1504 1509 1513 1517 1520 1522 1526 1529 1533 1536 1538 1540 1542 1544 1545 1547 1548 1549 1550 1551 1551 1552 1552 1552 1553 1553 1553 1553 1553
1473 1471 1470 1469 1469 1468 1468 1468 1462 1461 1463 1466 1471 1475 1478 1479 1483 1487 1492 1495 1500 1504 1509 1513 1516 1518 1522 1526 1530 1533 1536 1538 1540 1541 1543 1544 1546 1547 1548 1549 1549 1549 1550 1550 1550 1550 1550 1550 1550
1470 1473 1476 1468 1467 1466 1469 1471 1458 1458 1460 1463 1467 1470 1474 1476 1479 1483 1486 1491 1496 1500 1505 1509 1513 1515 1519 1523 1527 1531 1533 1535 1536 1538 1540 1541 1542 1543 1544 1545 1545 1546 1547 1547 1547 1547 1546 1546 1546
1473 1475 1475 1468 1461 1460 1461 1464 1456 1454 1456 1461 1464 1467 1470 1472 1476 1479 1481 1485 1490 1495 1500 1506 1510 1511 1515 1519 1523 1527 1529 1531 1533 1534 1536 1537 1539 1540 1541 1541 1542 1543 1543 1543 1543 1542 1542 1542 1541
1475 1471 1469 1464 1453 1452 1455 1456 1453 1453 1456 1459 1462 1465 1466 1468 1472 1475 1478 1480 1484 1491 1497 1503 1507 1509 1512 1516 1519 1522 1525 1527 1528 1530 1531 1533 1534 1535 1537 1537 1538 1539 1538 1538 1538 1538 1538 1537 1536
1464 1462 1458 1451 1443 1445 1448 1451 1450 1451 1454 1457 1459 1460 1463 1465 1468 1472 1474 1478 1483 1489 1494 1499 1504 1507 1509 1512 1515 1518 1521 1523 1524 1525 1527 1529 1530 1531 1532 1533 1534 1534 1534 1534 1534 1533 1533 1532 1532
1462 1463 1459 1449 1440 1441 1445 1448 1448 1449 1450 1453 1455 1457 1459 1462 1465 1468 1470 1475 1480 1486 1491 1496 1501 1504 1507 1510 1512 1514 1517 1519 1520 1521 1522 1524 1526 1528 1528 1529 1530 1530 1531 1530 1529 1529 1528 1528 1528
1457 1459 1458 1455 1447 1443 1448 1453 1450 1449 1449 1448 1449 1452 1455 1459 1462 1465 1468 1473 1477 1484 1489 1494 1498 1502 1505 1507 1509 1511 1514 1515 1516 1518 1518 1519 1522 1524 1525 1525 1526 1526 1527 1526 1526 1525 1524 1524 1524
1458 1452 1454 1456 1459 1458 1454 1463 1449 1444 1442 1441 1442 1445 1449 1454 1457 1461 1465 1470 1476 1481 1487 1491 1495 1499 1502 1504 1506 1507 1510 1511 1513 1515 1515 1516 1518 1520 1521 1522 1522 1522 1523 1522 1523 1521 1521 1521 1521
1452 1449 1450 1453 1457 1461 1457 1462 1451 1438 1436 1432 1431 1436 1442 1448 1453 1457 1463 1469 1474 1479 1484 1489 1492 1496 1499 1502 1504 1506 1508 1510 1511 1512 1513 1514 1516 1517 1518 1519 1519 1519 1520 1519 1519 1518 1518 1517 1517
1447 1450 1452 1453 1457 1470 1459 1461 1454 1436 1430 1425 1423 1429 1437 1443 1448 1454 1461 1467 1472 1477 1483 1487 1490 1493 1497 1500 1502 1504 1506 1507 1509 1510 1512 1513 1514 1515 1516 1517 1517 1517 1517 1517 1516 1515 1515 1515 1514
1447 1460 1472 1475 1473 1466 1446 1449 1441 1425 1419 1420 1422 1428 1435 1440 1446 1453 1458 1464 1470 1476 1481 1485 1488 1492 1495 1498 1501 1503 1504 1506 1508 1510 1511 1513 1514 1514 1514 1515 1515 1515 1515 1515 1514 1513 1513 1512 1511
1445 1453 1472 1478 1468 1451 1435 1440 1428 1418 1417 1420 1425 1430 1435 1440 1446 1452 1458 1465 1471 1476 1480 1484 1487 1490 1494 1497 1499 1501 1503 1506 1507 1509 1511 1512 1513 1512 1512 1513 1513 1513 1513 1513 1511 1510 1510 1510 1509
1443 1445 1444 1455 1457 1461 1449 1435 1422 1416 1418 1421 1425 1430 1434 1439 1445 1452 1459 1466 1472 1477 1480 1483 1487 1490 1493 1496 1499 1501 1503 1505 1506 1508 1510 1511 1512 1512 1511 1512 1512 1512 1511 1510 1509 1508 1507 1507 1506
1433 1437 1444 1453 1466 1469 1455 1444 1434 1424 1421 1421 1425 1430 1435 1439 1445 1452 1459 1467 1473 1476 1480 1483 1487 1490 1493 1496 1499 1501 1503 1504 1506 1507 1508 1509 1510 1510 1511 1511 1511 1510 1509 1508 1507 1505 1504 1503 1502
1431 1437 1441 1444 1445 1458 1462 1448 1426 1428 1427 1429 1430 1432 1436 1441 1446 1453 1459 1466 1472 1477 1480 1484 1487 1491 1494 1497 1499 1501 1503 1505 1506 1507 1508 1509 1509 1509 1510 1510 1509 1508 1507 1506 1504 1502 1501 1499 1497
1423 1428 1434 1450 1452 1448 1453 1448 1424 1426 1429 1433 1435 1436 1438 1442 1446 1453 1460 1466 1471 1476 1480 1484 1488 1491 1494 1497 1499 1501 1503 1505 1506 1507 1508 1508 1509 1509 1509 1508 1507 1506 1504 1503 1501 1498 1497 1494 1492